[[{"header":{"parameterUnit":"m.s-1","parameterCategory":1,"la1":30.2991,"la2":30.254,"lo1":-89.0895,"lo2":-89.0444,"dx":0.0017,"dy":0.0017,"nx":28,"ny":28,"refTime":"2023-01-14T03:00:00:Z","depth":0,"parameterNumber":2,"parameterNumberName":"U-component_of_WINDS"},"data":[0,0,0,0,0,0,0,0,0,0,0,0,0,0,0,0,0,0,0,0,0,0,0,0,0,0,0,0,0,0,0,0,0,0,0,0,0,0,0,0,0,0,0,0,0,0,0,0,0,0,0,0,0,0,0,0,0,0,1.2438,1.2438,0,1.243,1.243,1.243,1.2424,1.2424,1.2424,1.2424,1.2414,1.2413,1.2413,0,0,0,0,0,0,0,0,0,0,0,0,0,1.2447,1.2447,1.2438,1.2438,1.2438,1.243,1.243,1.243,1.2424,1.2424,1.2424,1.2423,1.2414,1.2413,1.2413,0,0,0,0,0,0,0,0,0,0,0,0,0,1.2441,1.2447,1.2438,1.2434,1.2433,1.243,1.243,1.243,1.2424,1.2424,1.2424,1.2423,1.2414,1.2413,1.2413,1.2413,0,0,1.2412,1.2412,0,0,0,0,0,0,0,0,1.2442,1.2441,1.2434,1.2434,1.2434,1.2428,1.2429,1.2424,1.2424,1.2427,1.2424,1.2423,1.2418,1.2418,1.2416,1.2412,1.2412,1.2412,1.2412,1.2412,1.2412,0,0,0,0,0,0,0,1.2442,1.2441,1.2435,1.2434,1.2434,1.2432,1.2431,1.2428,1.2423,1.2427,1.2427,1.2426,1.2418,1.2417,1.2416,1.2412,1.2412,1.2412,1.2412,1.2412,1.2408,1.2408,0,0,0,0,0,0,1.2443,1.2442,1.2435,1.2434,1.2438,1.2432,1.2431,1.243,1.2423,1.2422,1.2426,1.2426,1.2417,1.2416,1.2416,1.2415,1.2412,1.2411,1.2411,1.2408,1.2408,1.2408,0,0,0,0,0,0,1.2443,1.2443,1.2435,1.2438,1.2437,1.2432,1.243,1.243,1.2428,1.2422,1.2421,1.2425,1.2417,1.2416,1.2414,1.2415,1.2411,1.2411,1.2408,1.2408,1.2408,1.2414,0,0,0,0,0,0,1.2444,1.2443,1.2443,1.2438,1.2437,1.2434,1.2431,1.2429,1.2428,1.2427,1.2422,1.2421,1.2417,1.2414,1.2414,1.2414,1.2411,1.2408,1.2408,1.2408,1.2414,1.2414,1.2415,0,0,0,0,0,1.2444,1.2444,1.2443,1.2442,1.2437,1.2434,1.2433,1.2429,1.2428,1.2428,1.2424,1.2421,1.2415,1.2414,1.2413,1.2414,1.2408,1.2408,1.2408,1.2414,1.2414,1.2415,0,0,0,0,0,0,1.2448,1.2443,1.2442,1.244,1.2438,1.2433,1.2432,1.243,1.2427,1.2427,1.2422,1.2421,1.2419,1.2416,1.2416,1.2414,1.2411,1.2411,1.2415,1.2416,1.2417,1.2417,1.2411,0,0,0,0,0,1.2449,1.2447,1.2443,1.2442,1.2441,1.2437,1.2436,1.2433,1.243,1.2429,1.2425,1.2422,1.2419,1.2418,1.2415,1.2414,1.2413,1.2414,1.2414,1.2415,1.2415,1.2415,1.2415,1.2409,1.2409,1.2409,0,0,1.245,1.2447,1.2446,1.2443,1.2441,1.2439,1.2436,1.2434,1.2433,1.2428,1.2426,1.2424,1.242,1.2418,1.2417,1.2416,1.2416,1.2415,1.2416,1.2415,1.2415,1.2415,1.2416,1.2409,1.2409,1.2409,0,0,1.2451,1.2449,1.2449,1.2447,1.2444,1.2442,1.2442,1.2438,1.2436,1.2434,1.2431,1.2429,1.2425,1.2422,1.242,1.2423,1.242,1.2422,1.2425,1.2425,1.2426,1.2426,1.2427,1.2427,1.2423,1.2423,1.2423,0,1.2453,1.2451,1.2449,1.2448,1.2446,1.2443,1.2442,1.2441,1.2437,1.2436,1.2434,1.243,1.2427,1.2425,1.2426,1.2424,1.2424,1.2423,1.2426,1.2426,1.2426,1.2427,1.2428,1.2423,1.2423,1.2423,1.2423,0,1.2454,1.2453,1.2452,1.245,1.2449,1.2448,1.2445,1.2444,1.2442,1.244,1.2438,1.2435,1.2432,1.2432,1.2429,1.243,1.2429,1.2427,1.2424,1.2427,1.2428,1.2429,1.2423,1.2423,1.2423,1.2423,0,0,1.2456,1.2453,1.2453,1.2452,1.245,1.2448,1.2448,1.2446,1.2445,1.2443,1.2442,1.244,1.2438,1.2436,1.2433,1.2433,1.2436,1.2431,1.2431,1.2432,1.2437,1.2438,1.2439,1.2435,1.2435,1.2435,1.2437,0,1.2457,1.2456,1.2454,1.2454,1.2453,1.2451,1.245,1.2448,1.2447,1.2445,1.2443,1.2442,1.244,1.2439,1.2438,1.2436,1.2437,1.2436,1.2433,1.2433,1.2434,1.2439,1.244,1.2443,1.2438,1.2438,1.2438,0,1.2458,1.2457,1.2456,1.2455,1.2454,1.2454,1.2452,1.2452,1.245,1.2449,1.2447,1.2445,1.2444,1.2442,1.2441,1.2441,1.244,1.2439,1.2439,1.2438,1.2435,1.2438,1.2443,1.2444,1.2438,1.2438,1.2438,0,1.246,1.2458,1.2458,1.2457,1.2455,1.2455,1.2454,1.2453,1.2452,1.2451,1.245,1.2449,1.2447,1.2446,1.2444,1.2443,1.2443,1.2441,1.2442,1.2442,1.2441,1.2441,1.2446,1.2442,1.2442,1.2442,1.2442,0,1.2461,1.246,1.2459,1.2459,1.2459,1.2457,1.2457,1.2456,1.2455,1.2454,1.2452,1.2451,1.2448,1.2448,1.2446,1.2445,1.2445,1.2444,1.2443,1.2444,1.2444,1.2442,1.2442,1.2442,1.2442,1.2442,1.2442,0,1.2462,1.2461,1.2461,1.246,1.2459,1.2459,1.2458,1.2458,1.2457,1.2456,1.2456,1.2454,1.2453,1.2451,1.2449,1.2448,1.2448,1.2447,1.2449,1.2448,1.2449,1.2449,1.2453,1.2454,1.2449,1.2449,1.2449,0,1.2463,1.2463,1.2462,1.2462,1.2461,1.2461,1.2461,1.2459,1.2459,1.2458,1.2458,1.2457,1.2456,1.2455,1.2453,1.2452,1.2451,1.2452,1.245,1.2451,1.245,1.245,1.245,1.2452,1.2452,1.2452,1.2452,0,1.2464,1.2464,1.2463,1.2463,1.2463,1.2463,1.2462,1.2462,1.2461,1.246,1.246,1.246,1.2459,1.2458,1.2457,1.2456,1.2454,1.2453,1.2454,1.2454,1.2455,1.2454,1.2449,1.2453,1.2453,1.2453,1.2453,1.2453,1.2465,1.2465,1.2465,1.2465,1.2464,1.2464,1.2464,1.2464,1.2464,1.2463,1.2462,1.2462,1.2461,1.246,1.2459,1.2459,1.2458,1.2458,1.2458,1.2458,1.2458,1.2455,1.2458,1.2458,1.2458,1.2458,1.2458,0,1.2465,1.2466,1.2466,1.2466,1.2466,1.2465,1.2465,1.2465,1.2465,1.2465,1.2465,1.2464,1.2464,1.2463,1.2462,1.2462,1.2462,1.2462,1.2462,1.2462,1.2459,1.2459,1.2463,1.2463,1.2463,1.2463,1.2463,1.2463,1.2466,1.2466,1.2466,1.2467,1.2467,1.2467,1.2467,1.2467,1.2467,1.2467,1.2467,1.2467,1.2466,1.2466,1.2465,1.2465,1.2465,1.2466,1.2465,1.2462,1.2462,1.2461,1.2461,1.2466,1.2466,1.2468,1.2468,1.2468]},{"header":{"parameterUnit":"m.s-1","parameterCategory":1,"la1":30.2991,"la2":30.254,"lo1":-89.0895,"lo2":-89.0444,"dx":0.0017,"dy":0.0017,"nx":28,"ny":28,"refTime":"2023-01-14T03:00:00:Z","depth":0,"parameterNumber":3,"parameterNumberName":"V-component_of_WINDS"},"data":[0,0,0,0,0,0,0,0,0,0,0,0,0,0,0,0,0,0,0,0,0,0,0,0,0,0,0,0,0,0,0,0,0,0,0,0,0,0,0,0,0,0,0,0,0,0,0,0,0,0,0,0,0,0,0,0,0,0,-7.1392,-7.1394,0,-7.155,-7.1551,-7.1553,-7.1461,-7.1456,-7.1452,-7.1448,-7.1605,-7.1613,-7.1621,0,0,0,0,0,0,0,0,0,0,0,0,0,-7.1006,-7.1014,-7.1392,-7.1394,-7.1396,-7.1549,-7.1551,-7.1554,-7.1461,-7.1456,-7.1451,-7.1445,-7.1602,-7.1612,-7.1622,0,0,0,0,0,0,0,0,0,0,0,0,0,-7.117,-7.1016,-7.1391,-7.1368,-7.1368,-7.1549,-7.1551,-7.1554,-7.1463,-7.1456,-7.1449,-7.1443,-7.1599,-7.1611,-7.1623,-7.1835,0,0,-7.1661,-7.1667,0,0,0,0,0,0,0,0,-7.116,-7.1184,-7.137,-7.137,-7.137,-7.1479,-7.1473,-7.1648,-7.1464,-7.1427,-7.1447,-7.144,-7.1568,-7.1583,-7.1627,-7.1842,-7.1849,-7.1663,-7.167,-7.1676,-7.1679,0,0,0,0,0,0,0,-7.1149,-7.1177,-7.1454,-7.1373,-7.1373,-7.1349,-7.1364,-7.1506,-7.1533,-7.1429,-7.1423,-7.1443,-7.1567,-7.1615,-7.163,-7.1851,-7.1662,-7.1673,-7.1681,-7.1686,-7.2246,-7.2253,0,0,0,0,0,0,-7.114,-7.1168,-7.1449,-7.1459,-7.1247,-7.1361,-7.1379,-7.145,-7.1531,-7.1537,-7.1449,-7.1438,-7.1597,-7.1615,-7.1635,-7.1887,-7.1675,-7.1687,-7.1694,-7.2239,-7.2248,-7.2256,0,0,0,0,0,0,-7.1132,-7.1166,-7.1443,-7.1312,-7.1345,-7.1375,-7.1456,-7.1457,-7.1505,-7.1546,-7.1549,-7.1493,-7.1592,-7.1617,-7.1786,-7.1891,-7.1693,-7.1704,-7.223,-7.2241,-7.2252,-7.2394,0,0,0,0,0,0,-7.1122,-7.1164,-7.1246,-7.1314,-7.1352,-7.1593,-7.1463,-7.1465,-7.1528,-7.1515,-7.1589,-7.1594,-7.1589,-7.1767,-7.1798,-7.1905,-7.1714,-7.2221,-7.2235,-7.2248,-7.238,-7.2408,-7.2432,0,0,0,0,0,-7.1108,-7.1279,-7.125,-7.1285,-7.1456,-7.1599,-7.1621,-7.1612,-7.1537,-7.1618,-7.1644,-7.1592,-7.1875,-7.1786,-7.1819,-7.1931,-7.2214,-7.2231,-7.2247,-7.2368,-7.2402,-7.2432,0,0,0,0,0,0,-7.122,-7.1287,-7.1257,-7.1455,-7.1522,-7.1583,-7.1686,-7.165,-7.1739,-7.1723,-7.1708,-7.1725,-7.1901,-7.1932,-7.1832,-7.2139,-7.2032,-7.2056,-7.2112,-7.2146,-7.2172,-7.216,-7.1724,0,0,0,0,0,-7.1269,-7.1381,-7.1432,-7.1602,-7.1638,-7.1657,-7.1719,-7.1706,-7.1775,-7.1803,-7.184,-7.1908,-7.2011,-7.208,-7.2178,-7.2383,-7.2397,-7.2477,-7.2503,-7.2525,-7.2546,-7.2656,-7.2692,-7.231,-7.231,-7.2309,0,0,-7.1368,-7.1419,-7.1491,-7.1626,-7.1677,-7.1792,-7.1681,-7.1808,-7.1893,-7.1821,-7.1983,-7.2013,-7.2087,-7.2275,-7.2359,-7.2307,-7.2654,-7.2546,-7.2563,-7.2572,-7.2677,-7.2713,-7.2745,-7.2321,-7.2319,-7.2317,0,0,-7.161,-7.166,-7.1806,-7.186,-7.1938,-7.1949,-7.1985,-7.2052,-7.207,-7.2232,-7.218,-7.228,-7.246,-7.2514,-7.2566,-7.2827,-7.2782,-7.2859,-7.2997,-7.3105,-7.3135,-7.3161,-7.3254,-7.3288,-7.288,-7.288,-7.288,0,-7.1724,-7.1897,-7.1886,-7.2017,-7.2078,-7.2019,-7.2167,-7.2218,-7.2325,-7.2367,-7.2307,-7.2531,-7.2576,-7.2776,-7.284,-7.2883,-7.2922,-7.2851,-7.3132,-7.3158,-7.3183,-7.3271,-7.3306,-7.2889,-7.2888,-7.2887,-7.2886,0,-7.2033,-7.2154,-7.2262,-7.2368,-7.2441,-7.2579,-7.2588,-7.2662,-7.2644,-7.2661,-7.2826,-7.2878,-7.2986,-7.3032,-7.3014,-7.3229,-7.3194,-7.3133,-7.3025,-7.3228,-7.3311,-7.3345,-7.2902,-7.2898,-7.2896,-7.2894,0,0,-7.235,-7.2447,-7.2487,-7.2534,-7.2617,-7.2709,-7.2844,-7.295,-7.3014,-7.3089,-7.3201,-7.3354,-7.3299,-7.3357,-7.3345,-7.3439,-7.3642,-7.3367,-7.3368,-7.3416,-7.3881,-7.3926,-7.3965,-7.3613,-7.3619,-7.3624,-7.3874,0,-7.2596,-7.2834,-7.2828,-7.3049,-7.3159,-7.3105,-7.3223,-7.3285,-7.3305,-7.34,-7.342,-7.3529,-7.3448,-7.3482,-7.3574,-7.3598,-7.3735,-7.358,-7.3716,-7.3721,-7.3699,-7.4009,-7.4057,-7.4291,-7.3907,-7.3912,-7.3916,0,-7.2915,-7.3002,-7.3235,-7.33,-7.3346,-7.3453,-7.3549,-7.3641,-7.371,-7.3717,-7.3783,-7.3755,-7.3891,-7.3779,-7.3965,-7.3859,-7.3914,-7.3935,-7.3943,-7.3956,-7.3831,-7.4029,-7.4365,-7.44,-7.3967,-7.3963,-7.3959,0,-7.3123,-7.3297,-7.3459,-7.3501,-7.3581,-7.3657,-7.3694,-7.3756,-7.382,-7.3904,-7.3945,-7.4043,-7.4097,-7.4172,-7.4171,-7.409,-7.4359,-7.4247,-7.4368,-7.4368,-7.4427,-7.4423,-7.4776,-7.4463,-7.4462,-7.4461,-7.4461,0,-7.3398,-7.3542,-7.3553,-7.3653,-7.3812,-7.3803,-7.396,-7.3989,-7.4045,-7.4148,-7.4106,-7.4203,-7.4197,-7.4294,-7.4294,-7.4447,-7.4472,-7.448,-7.4479,-7.4485,-7.4484,-7.452,-7.4504,-7.4471,-7.4469,-7.4467,-7.4465,0,-7.3657,-7.367,-7.3843,-7.3905,-7.3924,-7.4039,-7.4091,-7.4185,-7.42,-7.4331,-7.4361,-7.4385,-7.4498,-7.4504,-7.4634,-7.4634,-7.482,-7.48,-7.4798,-7.4794,-7.4914,-7.4903,-7.5303,-7.5355,-7.5008,-7.5011,-7.5014,0,-7.3832,-7.3942,-7.4016,-7.4083,-7.4125,-7.4232,-7.4298,-7.4292,-7.4361,-7.4448,-7.4531,-7.464,-7.4727,-7.4909,-7.4937,-7.5036,-7.5018,-7.5152,-7.5033,-7.5035,-7.502,-7.5013,-7.5024,-7.5175,-7.5179,-7.5182,-7.5184,0,-7.4141,-7.4142,-7.4239,-7.4339,-7.4418,-7.4496,-7.4568,-7.4624,-7.4627,-7.4707,-7.4822,-7.489,-7.5023,-7.5131,-7.5228,-7.5263,-7.5225,-7.5222,-7.5255,-7.5262,-7.5256,-7.526,-7.4861,-7.5212,-7.521,-7.5208,-7.5206,-7.5205,-7.4363,-7.4458,-7.4526,-7.4635,-7.4688,-7.4757,-7.4848,-7.4875,-7.4972,-7.5081,-7.5071,-7.5199,-7.5263,-7.5389,-7.5432,-7.5531,-7.5485,-7.5533,-7.5545,-7.5557,-7.557,-7.524,-7.5548,-7.5548,-7.5547,-7.5546,-7.5546,0,-7.467,-7.4711,-7.4811,-7.4914,-7.5,-7.4957,-7.5034,-7.5108,-7.5222,-7.5286,-7.5373,-7.5505,-7.561,-7.5646,-7.5748,-7.582,-7.5804,-7.5846,-7.5841,-7.585,-7.5605,-7.5567,-7.5857,-7.5857,-7.5857,-7.5857,-7.5857,-7.5857,-7.484,-7.4998,-7.5008,-7.5191,-7.523,-7.5357,-7.5405,-7.5467,-7.5518,-7.5668,-7.5756,-7.5779,-7.5832,-7.5937,-7.603,-7.6038,-7.6077,-7.6127,-7.6127,-7.5898,-7.5867,-7.5837,-7.5801,-7.6136,-7.6136,-7.6364,-7.6366,-7.6367]}]]